Location: Prague
(50.0830°N, 14.4670°E)
Time: 08:05:57
(UTC+02:00)

STARLINK-1760 - Pass Details

Date: 22 September 2020
Orbit: 378 x 381 km, 53.0° (Epoch: 23 October)

Event Time Altitude Azimuth Distance (km) Brightness Sun altitude
Exits shadow 03:54:10 19° 67° (ENE) 1,006 5.7 -26.9°
Drops below altitude 10° 03:55:09 10° 68° (ENE) 1,404 6.6 -26.8°
Sets 03:57:08 0° 70° (ENE) 2,223 7.9 -26.5°
